TimeCDT,TemperatureF,Dew PointF,Humidity,Sea Level PressureIn,VisibilityMPH,Wind Direction,Wind SpeedMPH,Gust SpeedMPH,PrecipitationIn,Events,Conditions,WindDirDegrees,DateUTC
1:35 AM,59.0,32.0,36,29.79,7.0,West,10.4,17.3,N/A,,Clear,270,2012-10-19 06:35:00
1:55 AM,59.0,32.0,36,29.79,7.0,West,10.4,18.4,N/A,,Clear,270,2012-10-19 06:55:00
2:15 AM,59.0,32.0,36,29.80,7.0,West,5.8,-,N/A,,Clear,270,2012-10-19 07:15:00
2:35 AM,59.0,32.0,36,29.80,7.0,West,8.1,-,N/A,,Clear,280,2012-10-19 07:35:00
2:55 AM,57.2,32.0,38,29.79,7.0,West,8.1,-,N/A,,Clear,260,2012-10-19 07:55:00
3:15 AM,55.4,32.0,41,29.79,7.0,West,10.4,-,N/A,,Clear,270,2012-10-19 08:15:00
3:35 AM,55.4,32.0,41,29.80,7.0,West,10.4,19.6,N/A,,Clear,280,2012-10-19 08:35:00
3:55 AM,55.4,32.0,41,29.79,10.0,West,6.9,-,N/A,,Clear,280,2012-10-19 08:55:00
4:15 AM,55.4,32.0,41,29.78,10.0,West,11.5,16.1,N/A,,Clear,270,2012-10-19 09:15:00
4:35 AM,55.4,32.0,41,29.78,10.0,West,12.7,20.7,N/A,,Clear,280,2012-10-19 09:35:00
4:55 AM,55.4,32.0,41,29.79,10.0,West,9.2,-,N/A,,Clear,280,2012-10-19 09:55:00
5:15 AM,55.4,33.8,44,29.80,10.0,West,11.5,17.3,N/A,,Clear,270,2012-10-19 10:15:00
5:35 AM,53.6,32.0,44,29.80,10.0,West,13.8,20.7,N/A,,Clear,280,2012-10-19 10:35:00
5:55 AM,53.6,32.0,44,29.80,10.0,West,13.8,21.9,N/A,,Clear,280,2012-10-19 10:55:00
6:15 AM,53.6,33.8,47,29.80,10.0,WNW,12.7,21.9,N/A,,Clear,290,2012-10-19 11:15:00
6:35 AM,53.6,33.8,47,29.81,10.0,WNW,12.7,16.1,N/A,,Clear,290,2012-10-19 11:35:00
6:55 AM,53.6,33.8,47,29.81,10.0,West,8.1,17.3,N/A,,Clear,270,2012-10-19 11:55:00
7:15 AM,51.8,33.8,50,29.82,10.0,West,6.9,-,N/A,,Clear,280,2012-10-19 12:15:00
7:35 AM,51.8,33.8,50,29.82,10.0,West,10.4,-,N/A,,Clear,280,2012-10-19 12:35:00
7:55 AM,51.8,32.0,47,29.82,10.0,West,8.1,17.3,N/A,,Clear,280,2012-10-19 12:55:00
8:15 AM,51.8,32.0,47,29.83,10.0,WNW,12.7,20.7,N/A,,Clear,290,2012-10-19 13:15:00
8:35 AM,53.6,33.8,47,29.84,10.0,WNW,12.7,16.1,N/A,,Clear,290,2012-10-19 13:35:00
8:55 AM,53.6,33.8,47,29.85,10.0,West,12.7,18.4,N/A,,Clear,280,2012-10-19 13:55:00
9:15 AM,53.6,33.8,47,29.86,10.0,West,11.5,16.1,N/A,,Clear,280,2012-10-19 14:15:00
9:35 AM,55.4,33.8,44,29.86,10.0,West,11.5,18.4,N/A,,Clear,280,2012-10-19 14:35:00
9:55 AM,55.4,32.0,41,29.86,10.0,West,13.8,20.7,N/A,,Clear,280,2012-10-19 14:55:00
10:15 AM,55.4,33.8,44,29.86,10.0,West,16.1,20.7,N/A,,Clear,280,2012-10-19 15:15:00
10:35 AM,57.2,33.8,41,29.87,10.0,WNW,16.1,25.3,N/A,,Clear,290,2012-10-19 15:35:00
10:55 AM,57.2,33.8,41,29.88,10.0,WNW,12.7,24.2,N/A,,Scattered Clouds,290,2012-10-19 15:55:00
11:15 AM,59.0,35.6,42,29.88,10.0,NW,16.1,23.0,N/A,,Clear,310,2012-10-19 16:15:00
11:35 AM,59.0,33.8,39,29.88,10.0,NW,12.7,23.0,N/A,,Clear,310,2012-10-19 16:35:00
11:55 AM,59.0,33.8,39,29.89,10.0,WNW,15.0,23.0,N/A,,Clear,290,2012-10-19 16:55:00
12:15 PM,59.0,33.8,39,29.89,10.0,WNW,17.3,20.7,N/A,,Clear,300,2012-10-19 17:15:00
12:35 PM,60.8,35.6,39,29.89,10.0,WNW,10.4,18.4,N/A,,Clear,290,2012-10-19 17:35:00
12:55 PM,60.8,35.6,39,29.89,10.0,West,16.1,24.2,N/A,,Clear,280,2012-10-19 17:55:00
1:15 PM,60.8,35.6,39,29.88,10.0,West,12.7,17.3,N/A,,Clear,280,2012-10-19 18:15:00
1:35 PM,62.6,35.6,37,29.88,10.0,WNW,13.8,19.6,N/A,,Clear,300,2012-10-19 18:35:00
1:55 PM,62.6,37.4,39,29.87,10.0,WNW,15.0,-,N/A,,Clear,300,2012-10-19 18:55:00
2:15 PM,62.6,37.4,39,29.87,10.0,West,11.5,20.7,N/A,,Clear,280,2012-10-19 19:15:00
2:35 PM,62.6,35.6,37,29.86,10.0,West,10.4,18.4,N/A,,Clear,280,2012-10-19 19:35:00
2:55 PM,62.6,37.4,39,29.86,10.0,WNW,10.4,16.1,N/A,,Clear,300,2012-10-19 19:55:00
3:15 PM,62.6,37.4,39,29.86,10.0,NW,12.7,20.7,N/A,,Clear,310,2012-10-19 20:15:00
3:35 PM,64.4,37.4,37,29.86,10.0,WNW,13.8,18.4,N/A,,Clear,290,2012-10-19 20:35:00
4:15 PM,64.4,37.4,37,29.85,10.0,WNW,9.2,18.4,N/A,,Clear,290,2012-10-19 21:15:00
4:35 PM,64.4,37.4,37,29.85,10.0,WNW,10.4,16.1,N/A,,Clear,290,2012-10-19 21:35:00
4:55 PM,64.4,37.4,37,29.85,10.0,West,8.1,-,N/A,,Clear,280,2012-10-19 21:55:00
5:15 PM,62.6,35.6,37,29.85,10.0,West,8.1,-,N/A,,Clear,260,2012-10-19 22:15:00
5:35 PM,62.6,37.4,39,29.85,10.0,WNW,6.9,-,N/A,,Clear,290,2012-10-19 22:35:00
5:55 PM,62.6,37.4,39,29.86,10.0,WNW,5.8,-,N/A,,Clear,300,2012-10-19 22:55:00
6:15 PM,60.8,37.4,42,29.85,10.0,WNW,3.5,-,N/A,,Clear,300,2012-10-19 23:15:00
6:35 PM,59.0,37.4,45,29.85,10.0,Calm,Calm,-,N/A,,Clear,0,2012-10-19 23:35:00
6:55 PM,57.2,41.0,55,29.85,10.0,Calm,Calm,-,N/A,,Clear,0,2012-10-19 23:55:00
7:15 PM,55.4,41.0,58,29.86,10.0,Calm,Calm,-,N/A,,Clear,0,2012-10-20 00:15:00
7:35 PM,53.6,41.0,62,29.86,10.0,Calm,Calm,-,N/A,,Clear,0,2012-10-20 00:35:00
7:55 PM,51.8,41.0,67,29.86,10.0,Calm,Calm,-,N/A,,Clear,0,2012-10-20 00:55:00
8:15 PM,51.8,42.8,71,29.86,10.0,Calm,Calm,-,N/A,,Clear,0,2012-10-20 01:15:00
8:35 PM,50.0,41.0,71,29.87,10.0,Calm,Calm,-,N/A,,Clear,0,2012-10-20 01:35:00
8:55 PM,50.0,42.8,76,29.87,10.0,Calm,Calm,-,N/A,,Clear,0,2012-10-20 01:55:00
9:15 PM,48.2,42.8,82,29.88,10.0,Calm,Calm,-,N/A,,Clear,0,2012-10-20 02:15:00
9:35 PM,46.4,42.8,87,29.88,10.0,Calm,Calm,-,N/A,,Clear,0,2012-10-20 02:35:00
9:55 PM,46.4,42.8,87,29.88,10.0,Calm,Calm,-,N/A,,Clear,0,2012-10-20 02:55:00
10:15 PM,44.6,42.8,93,29.88,10.0,Calm,Calm,-,N/A,,Clear,0,2012-10-20 03:15:00
10:35 PM,44.6,42.8,93,29.88,10.0,Calm,Calm,-,N/A,,Clear,0,2012-10-20 03:35:00
10:55 PM,42.8,42.8,100,29.88,10.0,Calm,Calm,-,N/A,,Clear,0,2012-10-20 03:55:00
11:15 PM,44.6,44.6,100,29.88,10.0,Calm,Calm,-,N/A,,Clear,0,2012-10-20 04:15:00
11:35 PM,42.8,42.8,100,29.88,10.0,Calm,Calm,-,N/A,,Clear,0,2012-10-20 04:35:00
11:55 PM,42.8,42.8,100,29.87,10.0,Calm,Calm,-,N/A,,Clear,0,2012-10-20 04:55:00